Location: Kampung Segan
(3.1399°N, 113.1002°E)
Time: 13:37:12
(UTC+00:00)

MOS 1-B Rocket - Pass Details

Date: 13 October 2025
Orbit: 891 x 1603 km, 99.0° (Epoch: 16 November)

Event Time Altitude Azimuth Distance (km) Brightness Sun altitude
Rises 20:30:25 0° 7° (N) 4,525 7.5 -26.0°
Reaches altitude 10° 20:33:08 10° 5° (N) 3,619 6.9 -25.3°
Maximum altitude 20:41:48 69° 284° (WNW) 1,674 4.9 -23.2°
Drops below altitude 10° 20:50:58 10° 202° (SSW) 3,815 6.9 -20.9°
Sets 20:53:55 0° 199° (SSW) 4,781 7.5 -20.2°
